Weather in Krasnouralsk

Russia / Orenburg Oblast     51°21′02″N   56°53′04″E
temp.,
°C
wind,
m/s
gust,
m/s
humid.,
%
clouds,
%
prec.,
mm/h
press.,
hPa
HPBL,
m
4 march, thu
thu423:00−2sw61096100 1.4 1004482
02:00−2w5996100 0.9 1004407
05:00−5wnw5996100 1.4 1005302
08:00−7wnw5109597 0.3 1006305
11:00−8w6109398 0.5 1009435
14:00−6w71191100 0.1 1011685
17:00−7wsw71290100 0.1 1012543
20:00−8sw9169189 0.0 1012533
5 march, fri
fri523:00−4sw11188994 0.2 1011868
02:00−3wsw122089100 0.2 1009831
05:00−3sw11208299 0.3 1010659
08:00−5sw10198498 0.0 1011547
11:00−3sw10198675 0.0 1011681
14:00−1sw121985100 0.0 1010901
17:000sw132096100 1.4 10091160
20:00+1wsw111796100 1.2 1009992
6 march, sat
sat623:00+1wsw91597100 1.9 1010757
02:00+1wsw91497100 0.4 1010784
05:000w71298100 1.8 1012646
08:00−2wnw5996100 1.0 1013443
11:00−3nw249399 1.1 1014223
14:00−2wnw2288100 0.0 1014310
17:00−3nnw1194100 0.1 1013130
20:00−3ene2498100 1.3 1012138
7 march, sun
sun723:00−3e2398100 3.6 1010130
02:000sw91597100 2.3 1006787
05:00+1sw81497100 3.7 1005624
08:00−5wnw4697100 2.6 1004211
11:00−6nw6995100 3.8 1006392
14:00−7wnw71092100 0.8 1009518
17:00−11wnw71190100 0.8 1011475
20:00−16wnw5109465 0.0 1015193
8 march, mon
mon823:00−19w459732 0.0 101886
02:00−20w23950 0.0 101820
05:00−20ssw22930 0.0 101820
08:00−14ssw5128697 0.0 1017271
11:00−9sw9168398 0.0 1016582
14:00−5sw101682100 0.0 1015974
17:00−4sw101682100 0.0 10151039
20:00−4sw8168195 0.0 1014756